[[{"header":{"parameterUnit":"m.s-1","parameterCategory":1,"la1":30.2991,"la2":30.254,"lo1":-89.0895,"lo2":-89.0444,"dy":0.0017,"dx":0.0017,"nx":28,"ny":28,"refTime":"2023-09-29T21:00:00:Z","depth":0,"parameterNumber":2,"parameterNumberName":"U-component_of_WINDS"},"data":[0,0,0,0,0,0,0,0,0,0,0,0,0,0,0,0,0,0,0,0,0,0,0,0,0,0,0,0,0,0,0,0,0,0,0,0,0,0,0,0,0,0,0,0,0,0,0,0,0,0,0,0,0,0,0,0,0,0,-1.3607,-1.3609,0,-1.3766,-1.3768,-1.377,-1.3767,-1.3765,-1.3763,-1.3761,-1.3929,-1.3935,-1.3941,0,0,0,0,0,0,0,0,0,0,0,0,0,-1.3307,-1.3312,-1.3607,-1.3609,-1.3611,-1.3766,-1.3768,-1.377,-1.3768,-1.3765,-1.3762,-1.376,-1.3926,-1.3934,-1.3942,0,0,0,0,0,0,0,0,0,0,0,0,0,-1.3449,-1.3314,-1.3607,-1.3628,-1.3632,-1.3765,-1.3768,-1.3771,-1.3768,-1.3765,-1.3762,-1.3759,-1.3924,-1.3933,-1.3943,-1.4067,0,0,-1.3973,-1.3977,0,0,0,0,0,0,0,0,-1.3441,-1.346,-1.3623,-1.3627,-1.3631,-1.3743,-1.3723,-1.387,-1.3769,-1.3717,-1.3761,-1.3757,-1.387,-1.3884,-1.3921,-1.4075,-1.4082,-1.3973,-1.3979,-1.3983,-1.3986,0,0,0,0,0,0,0,-1.3431,-1.3453,-1.367,-1.3626,-1.3631,-1.3632,-1.3648,-1.3751,-1.381,-1.3721,-1.3721,-1.374,-1.3872,-1.3911,-1.3925,-1.4084,-1.3973,-1.3982,-1.3988,-1.3991,-1.435,-1.4353,0,0,0,0,0,0,-1.3416,-1.3445,-1.3665,-1.3675,-1.3526,-1.364,-1.3658,-1.3711,-1.3808,-1.382,-1.3742,-1.3739,-1.3897,-1.3913,-1.3931,-1.4084,-1.3983,-1.3992,-1.3998,-1.4346,-1.4351,-1.4355,0,0,0,0,0,0,-1.3409,-1.3435,-1.3659,-1.356,-1.3588,-1.3648,-1.3707,-1.3716,-1.3756,-1.3824,-1.3835,-1.3772,-1.3895,-1.3917,-1.4033,-1.409,-1.3997,-1.4006,-1.4342,-1.4348,-1.4353,-1.4391,0,0,0,0,0,0,-1.3401,-1.3433,-1.348,-1.3561,-1.3594,-1.3757,-1.3711,-1.3721,-1.3772,-1.3769,-1.3855,-1.3867,-1.3894,-1.4019,-1.4043,-1.4101,-1.4013,-1.4337,-1.4344,-1.4351,-1.4385,-1.4397,-1.4407,0,0,0,0,0,-1.339,-1.3485,-1.3482,-1.3509,-1.3653,-1.3761,-1.378,-1.3808,-1.3776,-1.3825,-1.3869,-1.3864,-1.4079,-1.4031,-1.4058,-1.412,-1.4334,-1.4342,-1.435,-1.438,-1.4394,-1.4407,0,0,0,0,0,0,-1.3411,-1.3496,-1.3494,-1.3618,-1.3682,-1.376,-1.3822,-1.3822,-1.3898,-1.3892,-1.3925,-1.3945,-1.4061,-1.4102,-1.4046,-1.4246,-1.4203,-1.4217,-1.4216,-1.423,-1.4241,-1.423,-1.4021,0,0,0,0,0,-1.3429,-1.3508,-1.3579,-1.3681,-1.3713,-1.3762,-1.381,-1.3826,-1.3894,-1.3922,-1.3974,-1.4042,-1.4125,-1.418,-1.426,-1.4389,-1.441,-1.4446,-1.4457,-1.4466,-1.4479,-1.4552,-1.457,-1.4382,-1.4382,-1.4382,0,0,-1.347,-1.3526,-1.3574,-1.3687,-1.3738,-1.3821,-1.3785,-1.3874,-1.3936,-1.3936,-1.4049,-1.4089,-1.4168,-1.4291,-1.4349,-1.4329,-1.4535,-1.4476,-1.4483,-1.4491,-1.4563,-1.458,-1.4596,-1.4388,-1.4387,-1.4386,0,0,-1.3586,-1.3635,-1.3727,-1.3779,-1.3856,-1.3888,-1.391,-1.3988,-1.4015,-1.4128,-1.413,-1.4204,-1.4346,-1.4402,-1.4449,-1.4585,-1.4585,-1.461,-1.4671,-1.4742,-1.4757,-1.477,-1.4821,-1.4839,-1.4622,-1.4623,-1.4623,0,-1.3627,-1.375,-1.3774,-1.3863,-1.3914,-1.3915,-1.4009,-1.4059,-1.4159,-1.4195,-1.4171,-1.4349,-1.4402,-1.4539,-1.4572,-1.461,-1.4638,-1.4602,-1.4752,-1.4766,-1.4779,-1.4828,-1.4847,-1.4625,-1.4625,-1.4625,-1.4624,0,-1.3797,-1.3882,-1.3947,-1.4043,-1.41,-1.4191,-1.4231,-1.4287,-1.4297,-1.4331,-1.4448,-1.451,-1.4604,-1.4637,-1.4648,-1.4777,-1.4763,-1.4745,-1.4703,-1.4799,-1.4846,-1.4865,-1.4629,-1.4628,-1.4628,-1.4627,0,0,-1.3934,-1.404,-1.4064,-1.4108,-1.4193,-1.426,-1.4352,-1.4441,-1.4489,-1.4558,-1.4637,-1.4757,-1.4741,-1.4794,-1.4812,-1.4874,-1.498,-1.4849,-1.4851,-1.4873,-1.5129,-1.5144,-1.5165,-1.4979,-1.4982,-1.4985,-1.5123,0,-1.4061,-1.4222,-1.4247,-1.439,-1.447,-1.4471,-1.4551,-1.4613,-1.4647,-1.4722,-1.476,-1.4845,-1.4816,-1.4849,-1.491,-1.4954,-1.5033,-1.4944,-1.5056,-1.506,-1.5039,-1.5189,-1.5205,-1.5332,-1.5141,-1.5144,-1.5146,0,-1.4232,-1.4303,-1.4454,-1.4528,-1.4563,-1.4634,-1.4719,-1.4789,-1.4859,-1.488,-1.4939,-1.4949,-1.5046,-1.4997,-1.5132,-1.5071,-1.5118,-1.5147,-1.5152,-1.5166,-1.5111,-1.521,-1.5373,-1.5393,-1.5175,-1.5173,-1.5171,0,-1.4319,-1.4454,-1.4561,-1.4598,-1.4687,-1.4738,-1.4778,-1.4844,-1.4897,-1.4971,-1.5006,-1.509,-1.5138,-1.5204,-1.5237,-1.5198,-1.5371,-1.5324,-1.5393,-1.5393,-1.5432,-1.543,-1.5608,-1.5457,-1.5457,-1.5457,-1.5456,0,-1.4461,-1.4553,-1.4602,-1.4669,-1.4773,-1.48,-1.4903,-1.4941,-1.5001,-1.5076,-1.5082,-1.5154,-1.5192,-1.5269,-1.5295,-1.5405,-1.5425,-1.5447,-1.5453,-1.5448,-1.5446,-1.5481,-1.5475,-1.5462,-1.5461,-1.546,-1.5459,0,-1.4578,-1.4613,-1.4731,-1.4805,-1.4826,-1.49,-1.4964,-1.503,-1.5062,-1.5158,-1.5182,-1.5235,-1.5326,-1.5364,-1.5477,-1.5495,-1.5621,-1.5619,-1.5597,-1.56,-1.5668,-1.5662,-1.5878,-1.5908,-1.5734,-1.5736,-1.5737,0,-1.4667,-1.4738,-1.4819,-1.4869,-1.491,-1.4991,-1.5044,-1.5073,-1.5128,-1.5213,-1.527,-1.536,-1.5434,-1.558,-1.563,-1.5716,-1.5719,-1.5788,-1.5732,-1.5725,-1.5723,-1.572,-1.5728,-1.58,-1.5801,-1.5803,-1.5804,0,-1.4823,-1.4836,-1.4912,-1.4994,-1.5056,-1.5123,-1.5188,-1.5229,-1.5268,-1.533,-1.5422,-1.548,-1.5594,-1.5685,-1.5774,-1.5817,-1.5819,-1.5821,-1.5842,-1.5839,-1.5824,-1.5836,-1.5628,-1.5817,-1.5815,-1.5814,-1.5814,-1.5813,-1.4931,-1.4994,-1.5061,-1.5145,-1.5196,-1.5257,-1.5322,-1.5362,-1.5439,-1.5534,-1.5546,-1.5645,-1.5715,-1.5834,-1.588,-1.596,-1.5943,-1.5973,-1.5981,-1.5989,-1.5994,-1.5808,-1.5976,-1.5975,-1.5975,-1.5975,-1.5975,0,-1.5089,-1.5131,-1.5208,-1.5298,-1.5364,-1.5356,-1.5428,-1.5485,-1.5571,-1.5635,-1.5707,-1.5814,-1.5902,-1.5957,-1.6047,-1.61,-1.6103,-1.6122,-1.6121,-1.6131,-1.6003,-1.5977,-1.6119,-1.6119,-1.6119,-1.6118,-1.6118,-1.6118,-1.5179,-1.5287,-1.5309,-1.5443,-1.5485,-1.5581,-1.5623,-1.5679,-1.573,-1.5848,-1.5921,-1.5955,-1.6017,-1.611,-1.6191,-1.6205,-1.6239,-1.626,-1.6274,-1.6154,-1.614,-1.6126,-1.6101,-1.6267,-1.6267,-1.6396,-1.6397,-1.6398]},{"header":{"parameterUnit":"m.s-1","parameterCategory":1,"la1":30.2991,"la2":30.254,"lo1":-89.0895,"lo2":-89.0444,"dy":0.0017,"dx":0.0017,"nx":28,"ny":28,"refTime":"2023-09-29T21:00:00:Z","depth":0,"parameterNumber":3,"parameterNumberName":"V-component_of_WINDS"},"data":[0,0,0,0,0,0,0,0,0,0,0,0,0,0,0,0,0,0,0,0,0,0,0,0,0,0,0,0,0,0,0,0,0,0,0,0,0,0,0,0,0,0,0,0,0,0,0,0,0,0,0,0,0,0,0,0,0,0,-2.825,-2.825,0,-2.826,-2.826,-2.826,-2.8216,-2.8215,-2.8213,-2.8212,-2.822,-2.8222,-2.8223,0,0,0,0,0,0,0,0,0,0,0,0,0,-2.8193,-2.8194,-2.825,-2.825,-2.8251,-2.826,-2.826,-2.826,-2.8216,-2.8215,-2.8213,-2.8212,-2.822,-2.8222,-2.8223,0,0,0,0,0,0,0,0,0,0,0,0,0,-2.8212,-2.8195,-2.825,-2.823,-2.8228,-2.8259,-2.826,-2.826,-2.8216,-2.8215,-2.8213,-2.8211,-2.8219,-2.8221,-2.8223,-2.8274,0,0,-2.823,-2.8231,0,0,0,0,0,0,0,0,-2.8211,-2.8214,-2.8233,-2.8231,-2.8229,-2.8235,-2.8242,-2.8265,-2.8217,-2.8221,-2.8212,-2.821,-2.8227,-2.8228,-2.8234,-2.8275,-2.8275,-2.823,-2.8231,-2.8232,-2.8233,0,0,0,0,0,0,0,-2.821,-2.8213,-2.8254,-2.8233,-2.8231,-2.822,-2.822,-2.8246,-2.8234,-2.822,-2.8217,-2.8219,-2.8225,-2.8232,-2.8234,-2.8275,-2.823,-2.8232,-2.8233,-2.8234,-2.8357,-2.8359,0,0,0,0,0,0,-2.8211,-2.8212,-2.8254,-2.8254,-2.8215,-2.8222,-2.8223,-2.8235,-2.8234,-2.8232,-2.8221,-2.8217,-2.8229,-2.8231,-2.8234,-2.8292,-2.8232,-2.8234,-2.8235,-2.8355,-2.8358,-2.836,0,0,0,0,0,0,-2.821,-2.8215,-2.8253,-2.8232,-2.8236,-2.8225,-2.8239,-2.8236,-2.8243,-2.8234,-2.8231,-2.823,-2.8228,-2.8231,-2.8264,-2.8292,-2.8235,-2.8237,-2.8353,-2.8356,-2.8359,-2.8411,0,0,0,0,0,0,-2.8209,-2.8215,-2.8235,-2.8233,-2.8238,-2.8284,-2.8241,-2.8238,-2.8246,-2.8242,-2.8242,-2.824,-2.8227,-2.8262,-2.8267,-2.8294,-2.8239,-2.835,-2.8354,-2.8358,-2.8407,-2.8415,-2.8423,0,0,0,0,0,-2.8207,-2.8249,-2.8236,-2.8241,-2.8262,-2.8286,-2.8289,-2.8273,-2.8249,-2.8268,-2.8263,-2.824,-2.8289,-2.8265,-2.8271,-2.8299,-2.8349,-2.8353,-2.8358,-2.8403,-2.8414,-2.8422,0,0,0,0,0,0,-2.8254,-2.8249,-2.8234,-2.8277,-2.8283,-2.8279,-2.8303,-2.8285,-2.8296,-2.8291,-2.8271,-2.8271,-2.8308,-2.8307,-2.8281,-2.8348,-2.8314,-2.832,-2.8347,-2.8357,-2.8365,-2.8364,-2.824,0,0,0,0,0,-2.827,-2.829,-2.8284,-2.8323,-2.8326,-2.8314,-2.8324,-2.8311,-2.8315,-2.8317,-2.8314,-2.8319,-2.8335,-2.8346,-2.8361,-2.8406,-2.8405,-2.8429,-2.8437,-2.8443,-2.8448,-2.8471,-2.8481,-2.8375,-2.8375,-2.8375,0,0,-2.8302,-2.8301,-2.8315,-2.8332,-2.8335,-2.8355,-2.8316,-2.834,-2.8355,-2.8321,-2.8352,-2.835,-2.8354,-2.8394,-2.8411,-2.8394,-2.8477,-2.8449,-2.8454,-2.8456,-2.8477,-2.8487,-2.8496,-2.8378,-2.8377,-2.8377,0,0,-2.8371,-2.8373,-2.8405,-2.8408,-2.8413,-2.8404,-2.8412,-2.8411,-2.8408,-2.8439,-2.8414,-2.8431,-2.846,-2.8463,-2.8469,-2.8539,-2.8518,-2.8544,-2.8586,-2.8608,-2.8617,-2.8624,-2.8648,-2.8657,-2.8549,-2.8549,-2.8549,0,-2.841,-2.8441,-2.8424,-2.8449,-2.8456,-2.8427,-2.8458,-2.8462,-2.8471,-2.8477,-2.8458,-2.8492,-2.8493,-2.8533,-2.855,-2.8556,-2.8563,-2.8543,-2.8617,-2.8624,-2.8631,-2.8653,-2.8662,-2.8552,-2.8552,-2.8552,-2.8551,0,-2.8488,-2.851,-2.8535,-2.8544,-2.8555,-2.8583,-2.857,-2.8582,-2.8569,-2.8562,-2.8594,-2.8593,-2.8607,-2.8615,-2.8602,-2.8653,-2.8642,-2.8621,-2.8586,-2.8644,-2.8665,-2.8673,-2.8557,-2.8555,-2.8555,-2.8554,0,0,-2.8587,-2.8586,-2.8596,-2.8599,-2.8601,-2.8617,-2.8644,-2.8658,-2.8668,-2.8675,-2.8697,-2.8721,-2.8701,-2.8707,-2.8694,-2.8714,-2.8768,-2.869,-2.869,-2.8704,-2.8823,-2.8839,-2.8849,-2.8755,-2.8757,-2.8758,-2.8822,0,-2.8654,-2.87,-2.8684,-2.8731,-2.875,-2.8722,-2.8745,-2.8748,-2.8743,-2.8758,-2.8752,-2.8769,-2.8742,-2.8745,-2.8764,-2.8758,-2.8792,-2.8753,-2.8774,-2.8775,-2.8773,-2.886,-2.8876,-2.8937,-2.883,-2.8832,-2.8833,0,-2.8738,-2.8748,-2.8796,-2.8794,-2.8802,-2.8823,-2.8833,-2.8848,-2.8852,-2.8846,-2.8853,-2.8836,-2.8861,-2.8828,-2.8862,-2.8836,-2.8843,-2.8841,-2.8843,-2.8844,-2.8807,-2.8862,-2.8956,-2.8965,-2.8846,-2.8845,-2.8844,0,-2.8804,-2.8829,-2.8861,-2.8865,-2.8864,-2.8879,-2.888,-2.8881,-2.889,-2.8899,-2.8904,-2.8916,-2.8923,-2.8932,-2.8918,-2.8895,-2.8954,-2.8919,-2.8949,-2.895,-2.8962,-2.8961,-2.9058,-2.8969,-2.8969,-2.8969,-2.8968,0,-2.8879,-2.8909,-2.8891,-2.891,-2.8943,-2.8925,-2.8958,-2.8955,-2.8956,-2.8974,-2.8951,-2.8968,-2.8949,-2.8964,-2.8953,-2.8983,-2.8986,-2.8982,-2.8978,-2.8983,-2.8984,-2.8987,-2.8982,-2.8971,-2.8971,-2.897,-2.897,0,-2.8958,-2.8947,-2.8979,-2.8976,-2.8975,-2.9,-2.8996,-2.9014,-2.9006,-2.9029,-2.9034,-2.9022,-2.9039,-2.9026,-2.9043,-2.9036,-2.9074,-2.9065,-2.9073,-2.907,-2.91,-2.9097,-2.9202,-2.9214,-2.9118,-2.9119,-2.912,0,-2.9006,-2.9029,-2.9027,-2.9038,-2.9039,-2.9057,-2.9065,-2.9048,-2.9058,-2.9063,-2.908,-2.9095,-2.9105,-2.9133,-2.9126,-2.9139,-2.9129,-2.9165,-2.9131,-2.9135,-2.9128,-2.9127,-2.9128,-2.9172,-2.9173,-2.9174,-2.9175,0,-2.9093,-2.9086,-2.9099,-2.9111,-2.9122,-2.913,-2.9136,-2.9146,-2.9129,-2.9141,-2.9158,-2.9166,-2.9183,-2.9197,-2.9207,-2.9207,-2.9188,-2.9186,-2.9193,-2.9198,-2.9201,-2.9198,-2.909,-2.9183,-2.9182,-2.9181,-2.9181,-2.9181,-2.9157,-2.9175,-2.9177,-2.9192,-2.9195,-2.9202,-2.9217,-2.9212,-2.9226,-2.9238,-2.9228,-2.9247,-2.9249,-2.926,-2.9263,-2.9277,-2.9263,-2.9274,-2.9276,-2.9279,-2.9282,-2.9199,-2.9279,-2.9279,-2.9279,-2.9279,-2.9278,0,-2.9241,-2.9241,-2.9255,-2.9265,-2.9277,-2.9258,-2.9264,-2.9275,-2.9293,-2.9296,-2.9307,-2.9326,-2.934,-2.9334,-2.9346,-2.9359,-2.9351,-2.9363,-2.9361,-2.9361,-2.9296,-2.9288,-2.937,-2.937,-2.937,-2.937,-2.937,-2.937,-2.9287,-2.9316,-2.9309,-2.934,-2.9339,-2.9358,-2.9363,-2.9369,-2.9371,-2.9393,-2.9405,-2.9401,-2.94,-2.9412,-2.9424,-2.9422,-2.9427,-2.9442,-2.9437,-2.9375,-2.9366,-2.9357,-2.935,-2.9444,-2.9444,-2.9501,-2.9501,-2.9502]}]]